"read_dt","SO2 (ppb)","flags","PMT voltage (V)","lamp voltage (V)","lamp intensity (Hz)","internal temp (C)","react chamber temp (C)","sample flow (l/min)","pres (mmHg)","SO2 bkg (ppb)","SO2 coefficient"
2013-07-11 00:00:00,1895E-4,5C000000,-0724,0936,11168,030.7,045.4,0.388,733.8,01.19,0.508
2013-07-11 00:01:00,2277E-4,5C000000,-0724,0937,11230,030.7,045.4,0.389,733.8,01.19,0.508
2013-07-11 00:02:00,2330E-4,5C000000,-0724,0937,10979,030.7,045.4,0.388,733.8,01.19,0.508
2013-07-11 00:03:00,2334E-4,5C000000,-0724,0936,11126,030.7,045.4,0.388,733.8,01.19,0.508
2013-07-11 00:04:00,2646E-4,5C000000,-0724,0935,11243,030.7,045.4,0.388,733.8,01.19,0.508
2013-07-11 00:05:00,2462E-4,5C000000,-0724,0936,11210,030.7,045.4,0.388,733.8,01.19,0.508
2013-07-11 00:06:00,2113E-4,5C000000,-0724,0935,11143,030.7,045.4,0.389,733.8,01.19,0.508
2013-07-11 00:07:00,2352E-4,5C000000,-0724,0937,11089,030.7,045.4,0.388,733.8,01.19,0.508
2013-07-11 00:08:00,1264E-4,5C000000,-0724,0936,11141,030.7,045.4,0.388,733.8,01.19,0.508
2013-07-11 00:09:00,2865E-4,5C000000,-0724,0936,11164,030.7,045.4,0.388,733.8,01.19,0.508
2013-07-11 00:10:00,1937E-4,5C000000,-0724,0936,11147,030.7,045.5,0.388,733.8,01.19,0.508
2013-07-11 00:11:00,2588E-4,5C000000,-0724,0936,11148,030.6,045.4,0.389,733.8,01.19,0.508
2013-07-11 00:12:00,2383E-4,5C000000,-0724,0936,11081,030.7,045.4,0.388,733.8,01.19,0.508
2013-07-11 00:13:00,2415E-4,5C000000,-0724,0936,11066,030.7,045.4,0.388,733.8,01.19,0.508
2013-07-11 00:14:00,1311E-4,5C000000,-0724,0935,10985,030.7,045.4,0.388,733.8,01.19,0.508
2013-07-11 00:15:00,1987E-4,5C000000,-0724,0937,11162,030.7,045.5,0.388,733.8,01.19,0.508
2013-07-11 00:16:00,1358E-4,5C000000,-0724,0937,11232,030.7,045.4,0.389,733.8,01.19,0.508
2013-07-11 00:17:00,2732E-4,5C000000,-0724,0936,11115,030.7,045.4,0.388,733.7,01.19,0.508
2013-07-11 00:18:00,9733E-5,5C000000,-0724,0936,11170,030.6,045.4,0.388,733.7,01.19,0.508
2013-07-11 00:19:00,2567E-4,5C000000,-0724,0937,11169,030.7,045.4,0.388,733.7,01.19,0.508
2013-07-11 00:20:00,2728E-4,5C000000,-0724,0937,11104,030.7,045.4,0.388,733.7,01.19,0.508
2013-07-11 00:21:00,3530E-4,5C000000,-0724,0936,11123,030.6,045.4,0.388,733.7,01.19,0.508
2013-07-11 00:22:00,7085E-5,5C000000,-0724,0936,11192,030.7,045.4,0.388,733.7,01.19,0.508
2013-07-11 00:23:00,2011E-4,5C000000,-0724,0936,11255,030.7,045.4,0.388,733.7,01.19,0.508
2013-07-11 00:24:00,2705E-4,5C000000,-0724,0936,11242,030.7,045.4,0.388,733.7,01.19,0.508
2013-07-11 00:25:00,2444E-4,5C000000,-0724,0935,11102,030.7,045.4,0.388,733.7,01.19,0.508
2013-07-11 00:26:00,2817E-4,5C000000,-0724,0937,11145,030.7,045.4,0.389,733.7,01.19,0.508
2013-07-11 00:27:00,2035E-4,5C000000,-0724,0936,11173,030.7,045.4,0.388,733.7,01.19,0.508
2013-07-11 00:28:00,2000E-4,5C000000,-0724,0936,11061,030.7,045.4,0.388,733.7,01.19,0.508
2013-07-11 00:29:00,3223E-4,5C000000,-0724,0936,11102,030.7,045.4,0.388,733.7,01.19,0.508
2013-07-11 00:30:00,2069E-4,5C000000,-0724,0936,11184,030.7,045.5,0.388,733.7,01.19,0.508
2013-07-11 00:31:00,1358E-4,5C000000,-0724,0937,11052,030.7,045.4,0.389,733.7,01.19,0.508
2013-07-11 00:32:00,2741E-4,5C000000,-0724,0936,11204,030.7,045.4,0.388,733.7,01.19,0.508
2013-07-11 00:33:00,2755E-4,5C000000,-0724,0936,11172,030.7,045.4,0.388,733.7,01.19,0.508
2013-07-11 00:34:00,2083E-4,5C000000,-0724,0935,11178,030.6,045.4,0.388,733.7,01.19,0.508
2013-07-11 00:35:00,2144E-4,5C000000,-0724,0936,10992,030.7,045.4,0.388,733.7,01.19,0.508
2013-07-11 00:36:00,2657E-4,5C000000,-0724,0936,11035,030.6,045.4,0.388,733.7,01.19,0.508
2013-07-11 00:37:00,2193E-4,5C000000,-0724,0936,10918,030.6,045.5,0.389,733.7,01.19,0.508
2013-07-11 00:38:00,9745E-5,5C000000,-0724,0936,11141,030.6,045.4,0.388,733.7,01.19,0.508
2013-07-11 00:39:00,2577E-4,5C000000,-0724,0936,11078,030.6,045.4,0.388,733.7,01.19,0.508
2013-07-11 00:40:00,2386E-4,5C000000,-0724,0936,11160,030.6,045.4,0.388,733.7,01.19,0.508
2013-07-11 00:41:00,2384E-4,5C000000,-0724,0935,11047,030.6,045.4,0.388,733.7,01.19,0.508
2013-07-11 00:42:00,2674E-4,5C000000,-0724,0935,11160,030.7,045.4,0.389,733.7,01.19,0.508
2013-07-11 00:43:00,1924E-4,5C000000,-0724,0936,11238,030.7,045.4,0.388,733.7,01.19,0.508
2013-07-11 00:44:00,1844E-4,5C000000,-0724,0936,11296,030.6,045.4,0.388,733.7,01.19,0.508
2013-07-11 00:45:00,2716E-4,5C000000,-0724,0936,11196,030.6,045.4,0.388,733.7,01.19,0.508
2013-07-11 00:46:00,2656E-4,5C000000,-0724,0936,11326,030.6,045.4,0.388,733.7,01.19,0.508
2013-07-11 00:47:00,2566E-4,5C000000,-0724,0937,11106,030.6,045.4,0.389,733.7,01.19,0.508
2013-07-11 00:48:00,2411E-4,5C000000,-0724,0936,11272,030.6,045.4,0.388,733.7,01.19,0.508
2013-07-11 00:49:00,3024E-4,5C000000,-0724,0936,11218,030.6,045.4,0.388,733.7,01.19,0.508
2013-07-11 00:50:00,1766E-4,5C000000,-0724,0936,11226,030.6,045.4,0.388,733.7,01.19,0.508
2013-07-11 00:51:00,2115E-4,5C000000,-0724,0936,11084,030.6,045.5,0.388,733.7,01.19,0.508
2013-07-11 00:52:00,2733E-4,5C000000,-0724,0936,11270,030.6,045.5,0.389,733.7,01.19,0.508
2013-07-11 00:53:00,2407E-4,5C000000,-0724,0936,11010,030.6,045.4,0.388,733.7,01.19,0.508
2013-07-11 00:54:00,1938E-4,5C000000,-0724,0937,11195,030.6,045.4,0.388,733.7,01.19,0.508
2013-07-11 00:55:00,2016E-4,5C000000,-0724,0936,11180,030.6,045.4,0.388,733.7,01.19,0.508
2013-07-11 00:56:00,2419E-4,5C000000,-0724,0935,11105,030.6,045.4,0.388,733.7,01.19,0.508
2013-07-11 00:57:00,3024E-4,5C000000,-0724,0936,11150,030.6,045.4,0.389,733.7,01.19,0.508
2013-07-11 00:58:00,2138E-4,5C000000,-0724,0936,11121,030.6,045.4,0.388,733.7,01.19,0.508
2013-07-11 00:59:00,2324E-4,5C000000,-0724,0935,11121,030.6,045.4,0.388,733.7,01.19,0.508
2013-07-11 01:00:00,2738E-4,5C000000,-0724,0936,11125,030.6,045.4,0.388,733.7,01.19,0.508
2013-07-11 01:01:00,1905E-4,5C000000,-0724,0936,11080,030.6,045.4,0.388,733.7,01.19,0.508
2013-07-11 01:02:00,1887E-4,5C000000,-0724,0935,11037,030.6,045.4,0.388,733.7,01.19,0.508
2013-07-11 01:03:00,2391E-4,5C000000,-0724,0936,11195,030.6,045.4,0.389,733.7,01.19,0.508
2013-07-11 01:04:00,9684E-5,5C000000,-0724,0936,11130,030.6,045.5,0.388,733.7,01.19,0.508
2013-07-11 01:05:00,2045E-4,5C000000,-0724,0936,11251,030.6,045.4,0.388,733.7,01.19,0.508
2013-07-11 01:06:00,2139E-4,5C000000,-0724,0935,11203,030.6,045.4,0.388,733.7,01.19,0.508
2013-07-11 01:07:00,2505E-4,5C000000,-0724,0936,11148,030.6,045.4,0.388,733.7,01.19,0.508
2013-07-11 01:08:00,2325E-4,5C000000,-0724,0936,11277,030.6,045.4,0.389,733.7,01.19,0.508
2013-07-11 01:09:00,2152E-4,5C000000,-0724,0936,11169,030.6,045.4,0.388,733.7,01.19,0.508
2013-07-11 01:10:00,2155E-4,5C000000,-0724,0936,11277,030.6,045.4,0.388,733.7,01.19,0.508
2013-07-11 01:11:00,2268E-4,5C000000,-0724,0936,11236,030.6,045.4,0.388,733.7,01.19,0.508
2013-07-11 01:12:00,1912E-4,5C000000,-0724,0936,10981,030.6,045.4,0.389,733.7,01.19,0.508
2013-07-11 01:13:00,3633E-4,5C000000,-0724,0936,11262,030.6,045.4,0.388,733.7,01.19,0.508
2013-07-11 01:14:00,2424E-4,5C000000,-0724,0936,11021,030.6,045.4,0.388,733.7,01.19,0.508
2013-07-11 01:15:00,2325E-4,5C000000,-0724,0936,11227,030.6,045.5,0.388,733.7,01.19,0.508
2013-07-11 01:16:00,1651E-4,5C000000,-0724,0937,11227,030.6,045.4,0.388,733.7,01.19,0.508
2013-07-11 01:17:00,2110E-4,5C000000,-0724,0936,11012,030.6,045.4,0.389,733.7,01.19,0.508
2013-07-11 01:18:00,1887E-4,5C000000,-0724,0936,11192,030.6,045.4,0.388,733.7,01.19,0.508
2013-07-11 01:19:00,2000E-4,5C000000,-0724,0936,11010,030.6,045.4,0.388,733.7,01.19,0.508
2013-07-11 01:20:00,2322E-4,5C000000,-0724,0937,11178,030.6,045.5,0.388,733.7,01.19,0.508
2013-07-11 01:21:00,2896E-4,5C000000,-0724,0936,11183,030.6,045.4,0.388,733.7,01.19,0.508
2013-07-11 01:22:00,2214E-4,5C000000,-0724,0936,11273,030.6,045.4,0.388,733.7,01.19,0.508
2013-07-11 01:23:00,1619E-4,5C000000,-0724,0936,11206,030.6,045.4,0.389,733.7,01.19,0.508
2013-07-11 01:24:00,2428E-4,5C000000,-0724,0937,11143,030.6,045.4,0.388,733.7,01.19,0.508
2013-07-11 01:25:00,1914E-4,5C000000,-0724,0936,11193,030.6,045.4,0.388,733.7,01.19,0.508
2013-07-11 01:26:00,2369E-4,5C000000,-0724,0936,11157,030.6,045.4,0.388,733.7,01.19,0.508
2013-07-11 01:27:00,2026E-4,5C000000,-0724,0936,11117,030.6,045.5,0.388,733.7,01.19,0.508
2013-07-11 01:28:00,2196E-4,5C000000,-0724,0936,11143,030.6,045.4,0.388,733.7,01.19,0.508
2013-07-11 01:29:00,3650E-4,5C000000,-0724,0936,11261,030.6,045.4,0.389,733.7,01.19,0.508
2013-07-11 01:30:00,1967E-4,5C000000,-0724,0936,11149,030.6,045.4,0.388,733.7,01.19,0.508
2013-07-11 01:31:00,2770E-4,5C000000,-0724,0937,10908,030.6,045.4,0.388,733.7,01.19,0.508
2013-07-11 01:32:00,2394E-4,5C000000,-0724,0936,11076,030.6,045.4,0.388,733.7,01.19,0.508
2013-07-11 01:33:00,2989E-4,5C000000,-0724,0936,11181,030.6,045.4,0.388,733.7,01.19,0.508
2013-07-11 01:34:00,2183E-4,5C000000,-0724,0937,11313,030.6,045.4,0.389,733.7,01.19,0.508
2013-07-11 01:35:00,1944E-4,5C000000,-0724,0935,11198,030.6,045.4,0.389,733.7,01.19,0.508
2013-07-11 01:36:00,1754E-4,5C000000,-0724,0936,11071,030.6,045.4,0.388,733.7,01.19,0.508
2013-07-11 01:37:00,2501E-4,5C000000,-0724,0937,11075,030.6,045.4,0.388,733.7,01.19,0.508
2013-07-11 01:38:00,3187E-4,5C000000,-0724,0936,10968,030.6,045.4,0.388,733.7,01.19,0.508
2013-07-11 01:39:00,2679E-4,5C000000,-0724,0937,11104,030.6,045.5,0.388,733.7,01.19,0.508
2013-07-11 01:40:00,3295E-4,5C000000,-0724,0935,11124,030.6,045.4,0.389,733.7,01.19,0.508
2013-07-11 01:41:00,2154E-4,5C000000,-0724,0936,11159,030.6,045.4,0.388,733.7,01.19,0.508
2013-07-11 01:42:00,2855E-4,5C000000,-0724,0937,11197,030.6,045.4,0.388,733.7,01.19,0.508
2013-07-11 01:43:00,2606E-4,5C000000,-0724,0937,11165,030.6,045.4,0.388,733.7,01.19,0.508
2013-07-11 01:44:00,2895E-4,5C000000,-0724,0937,11297,030.6,045.4,0.388,733.7,01.19,0.508
2013-07-11 01:45:00,2935E-4,5C000000,-0724,0937,11074,030.6,045.4,0.389,733.7,01.19,0.508
2013-07-11 01:46:00,5748E-4,5C000000,-0724,0937,11151,030.6,045.4,0.389,733.6,01.19,0.508
2013-07-11 01:47:00,6617E-4,5C000000,-0724,0935,11009,030.6,045.4,0.388,733.6,01.19,0.508
2013-07-11 01:48:00,6513E-4,5C000000,-0724,0936,11268,030.6,045.5,0.388,733.6,01.19,0.508
2013-07-11 01:49:00,8264E-4,5C000000,-0724,0936,11064,030.6,045.4,0.388,733.5,01.19,0.508
2013-07-11 01:50:00,1434E-3,5C000000,-0724,0936,11260,030.6,045.4,0.388,733.6,01.19,0.508
2013-07-11 01:51:00,1949E-3,5C000000,-0724,0935,11071,030.6,045.4,0.388,733.6,01.19,0.508
2013-07-11 01:52:00,2129E-3,5C000000,-0724,0936,11129,030.6,045.4,0.389,733.6,01.19,0.508
2013-07-11 01:53:00,2277E-3,5C000000,-0724,0937,11241,030.6,045.4,0.388,733.5,01.19,0.508
2013-07-11 01:54:00,1710E-3,5C000000,-0724,0936,11115,030.6,045.4,0.388,733.5,01.19,0.508
2013-07-11 01:55:00,1717E-3,5C000000,-0724,0936,11213,030.6,045.4,0.388,733.5,01.19,0.508
2013-07-11 01:56:00,1589E-3,5C000000,-0724,0936,11235,030.6,045.4,0.388,733.5,01.19,0.508
2013-07-11 01:57:00,1410E-3,5C000000,-0724,0936,11201,030.6,045.4,0.388,733.5,01.19,0.508
2013-07-11 01:58:00,1108E-3,5C000000,-0724,0936,11153,030.6,045.4,0.389,733.5,01.19,0.508
2013-07-11 01:59:00,7024E-4,5C000000,-0724,0936,11168,030.6,045.4,0.388,733.5,01.19,0.508
2013-07-11 02:00:00,9070E-4,5C000000,-0724,0936,11140,030.6,045.4,0.388,733.5,01.19,0.508
2013-07-11 02:01:00,1230E-3,5C000000,-0724,0936,10926,030.6,045.4,0.388,733.5,01.19,0.508
2013-07-11 02:02:00,1699E-3,5C000000,-0724,0936,11210,030.6,045.4,0.388,733.5,01.19,0.508
2013-07-11 02:03:00,1573E-3,5C000000,-0724,0936,11093,030.6,045.4,0.388,733.6,01.19,0.508
2013-07-11 02:04:00,1624E-3,5C000000,-0724,0936,11214,030.6,045.4,0.389,733.6,01.19,0.508
2013-07-11 02:05:00,1860E-3,5C000000,-0724,0936,11174,030.6,045.4,0.389,733.6,01.19,0.508
2013-07-11 02:06:00,1479E-3,5C000000,-0724,0937,11270,030.6,045.4,0.388,733.6,01.19,0.508
2013-07-11 02:07:00,1054E-3,5C000000,-0724,0936,11237,030.6,045.4,0.388,733.6,01.19,0.508
2013-07-11 02:08:00,6748E-4,5C000000,-0724,0936,11162,030.6,045.4,0.388,733.6,01.19,0.508
2013-07-11 02:09:00,5334E-4,5C000000,-0724,0937,11245,030.6,045.4,0.388,733.6,01.19,0.508
2013-07-11 02:10:00,4719E-4,5C000000,-0724,0936,11184,030.6,045.4,0.388,733.6,01.19,0.508
2013-07-11 02:11:00,4286E-4,5C000000,-0724,0936,11137,030.6,045.4,0.388,733.6,01.19,0.508
2013-07-11 02:12:00,3710E-4,5C000000,-0724,0937,11211,030.6,045.4,0.388,733.6,01.19,0.508
2013-07-11 02:13:00,3914E-4,5C000000,-0724,0936,11048,030.6,045.4,0.388,733.6,01.19,0.508
2013-07-11 02:14:00,2458E-4,5C000000,-0724,0935,11061,030.6,045.4,0.388,733.6,01.19,0.508
2013-07-11 02:15:00,3051E-4,5C000000,-0724,0937,11191,030.6,045.4,0.388,733.6,01.19,0.508
2013-07-11 02:16:00,2856E-4,5C000000,-0724,0937,11249,030.6,045.4,0.388,733.6,01.19,0.508
2013-07-11 02:17:00,2906E-4,5C000000,-0724,0935,11117,030.6,045.4,0.388,733.5,01.19,0.508
2013-07-11 02:18:00,3531E-4,5C000000,-0724,0936,11242,030.6,045.4,0.388,733.5,01.19,0.508
2013-07-11 02:19:00,5343E-4,5C000000,-0724,0936,11162,030.6,045.4,0.388,733.5,01.19,0.508
2013-07-11 02:20:00,8883E-4,5C000000,-0724,0936,11011,030.6,045.4,0.388,733.5,01.19,0.508
2013-07-11 02:21:00,1424E-3,5C000000,-0724,0937,11319,030.6,045.4,0.388,733.5,01.19,0.508
2013-07-11 02:22:00,1836E-3,5C000000,-0724,0936,11191,030.6,045.5,0.388,733.5,01.19,0.508
2013-07-11 02:23:00,1389E-3,5C000000,-0724,0936,11114,030.6,045.4,0.388,733.5,01.19,0.508
2013-07-11 02:24:00,7483E-4,5C000000,-0724,0936,11124,030.6,045.5,0.389,733.5,01.19,0.508
2013-07-11 02:25:00,1032E-3,5C000000,-0724,0936,11032,030.6,045.4,0.388,733.5,01.19,0.508
2013-07-11 02:26:00,1315E-3,5C000000,-0724,0936,11173,030.6,045.4,0.388,733.5,01.19,0.508
2013-07-11 02:27:00,1362E-3,5C000000,-0724,0936,11115,030.6,045.4,0.388,733.5,01.19,0.508
2013-07-11 02:28:00,1463E-3,5C000000,-0724,0936,11177,030.6,045.4,0.388,733.5,01.19,0.508
2013-07-11 02:29:00,1168E-3,5C000000,-0724,0936,11271,030.6,045.4,0.388,733.5,01.19,0.508
2013-07-11 02:30:00,1272E-3,5C000000,-0724,0936,11224,030.6,045.4,0.388,733.5,01.19,0.508
2013-07-11 02:31:00,1872E-3,5C000000,-0724,0936,11166,030.6,045.4,0.388,733.5,01.19,0.508
2013-07-11 02:32:00,2209E-3,5C000000,-0724,0936,11233,030.6,045.4,0.388,733.5,01.19,0.508
2013-07-11 02:33:00,2219E-3,5C000000,-0724,0936,11082,030.6,045.4,0.388,733.5,01.19,0.508
2013-07-11 02:34:00,2157E-3,5C000000,-0724,0935,11186,030.6,045.4,0.388,733.5,01.19,0.508
2013-07-11 02:35:00,1924E-3,5C000000,-0724,0936,11149,030.6,045.4,0.388,733.5,01.19,0.508
2013-07-11 02:36:00,2117E-3,5C000000,-0724,0936,11161,030.6,045.4,0.388,733.5,01.19,0.508
2013-07-11 02:37:00,1541E-3,5C000000,-0724,0936,11093,030.6,045.4,0.389,733.5,01.19,0.508
2013-07-11 02:38:00,1087E-3,5C000000,-0724,0937,11204,030.6,045.4,0.388,733.5,01.19,0.508
2013-07-11 02:39:00,1159E-3,5C000000,-0724,0936,11136,030.6,045.4,0.388,733.5,01.19,0.508
2013-07-11 02:40:00,9233E-4,5C000000,-0724,0936,11240,030.6,045.4,0.388,733.5,01.19,0.508
2013-07-11 02:41:00,9938E-4,5C000000,-0724,0937,11251,030.6,045.4,0.388,733.5,01.19,0.508
2013-07-11 02:42:00,1328E-3,5C000000,-0724,0937,11116,030.6,045.4,0.388,733.5,01.19,0.508
2013-07-11 02:43:00,1167E-3,5C000000,-0724,0936,11163,030.6,045.4,0.388,733.5,01.19,0.508
2013-07-11 02:44:00,6620E-4,5C000000,-0724,0937,11187,030.6,045.4,0.389,733.5,01.19,0.508
2013-07-11 02:45:00,3934E-4,5C000000,-0724,0937,11133,030.6,045.4,0.388,733.5,01.19,0.508
2013-07-11 02:46:00,2202E-4,5C000000,-0724,0936,11105,030.6,045.4,0.388,733.5,01.19,0.508
2013-07-11 02:47:00,2227E-4,5C000000,-0724,0936,11160,030.6,045.4,0.388,733.5,01.19,0.508
2013-07-11 02:48:00,2293E-4,5C000000,-0724,0935,11240,030.6,045.4,0.388,733.4,01.19,0.508
2013-07-11 02:49:00,4222E-4,5C000000,-0724,0936,11269,030.6,045.4,0.388,733.5,01.19,0.508
2013-07-11 02:50:00,3497E-4,5C000000,-0724,0936,11121,030.6,045.4,0.388,733.5,01.19,0.508
2013-07-11 02:51:00,4836E-4,5C000000,-0724,0936,11131,030.6,045.4,0.389,733.4,01.19,0.508
2013-07-11 02:52:00,9761E-4,5C000000,-0724,0936,11276,030.6,045.4,0.388,733.4,01.19,0.508
2013-07-11 02:53:00,1352E-3,5C000000,-0724,0937,11237,030.6,045.5,0.388,733.4,01.19,0.508
2013-07-11 02:54:00,1688E-3,5C000000,-0724,0937,11294,030.6,045.4,0.388,733.4,01.19,0.508
2013-07-11 02:55:00,2194E-3,5C000000,-0724,0937,11150,030.5,045.4,0.388,733.4,01.19,0.508
2013-07-11 02:56:00,2236E-3,5C000000,-0724,0937,11279,030.5,045.4,0.388,733.4,01.19,0.508
2013-07-11 02:57:00,2059E-3,5C000000,-0724,0936,11167,030.6,045.4,0.388,733.3,01.19,0.508
2013-07-11 02:58:00,2222E-3,5C000000,-0724,0936,11202,030.6,045.4,0.388,733.3,01.19,0.508
2013-07-11 02:59:00,2181E-3,5C000000,-0724,0937,11231,030.6,045.4,0.388,733.3,01.19,0.508
2013-07-11 03:00:00,1829E-3,5C000000,-0724,0936,11103,030.5,045.4,0.388,733.3,01.19,0.508
2013-07-11 03:01:00,1985E-3,5C000000,-0724,0937,11186,030.6,045.4,0.388,733.3,01.19,0.508
2013-07-11 03:02:00,1968E-3,5C000000,-0724,0936,11134,030.6,045.4,0.388,733.3,01.19,0.508
2013-07-11 03:03:00,2403E-3,5C000000,-0724,0937,11143,030.6,045.4,0.388,733.3,01.19,0.508
2013-07-11 03:04:00,2710E-3,5C000000,-0724,0937,11215,030.6,045.4,0.388,733.3,01.19,0.508
2013-07-11 03:05:00,1900E-3,5C000000,-0724,0936,11185,030.5,045.4,0.388,733.3,01.19,0.508
2013-07-11 03:06:00,9018E-4,5C000000,-0724,0935,11228,030.6,045.4,0.388,733.3,01.19,0.508
2013-07-11 03:07:00,4403E-4,5C000000,-0724,0936,11141,030.6,045.4,0.388,733.3,01.19,0.508
2013-07-11 03:08:00,3185E-4,5C000000,-0724,0937,11226,030.6,045.4,0.388,733.2,01.19,0.508
2013-07-11 03:09:00,2423E-4,5C000000,-0724,0938,11094,030.6,045.4,0.388,733.2,01.19,0.508
2013-07-11 03:10:00,3037E-4,5C000000,-0724,0936,11185,030.6,045.4,0.388,733.2,01.19,0.508
2013-07-11 03:11:00,1959E-4,5C000000,-0724,0936,11243,030.6,045.5,0.388,733.2,01.19,0.508
2013-07-11 03:12:00,2408E-4,5C000000,-0724,0936,11175,030.6,045.4,0.388,733.2,01.19,0.508
2013-07-11 03:13:00,2625E-4,5C000000,-0724,0936,11196,030.6,045.4,0.388,733.3,01.19,0.508
2013-07-11 03:14:00,2637E-4,5C000000,-0724,0936,10985,030.6,045.4,0.388,733.2,01.19,0.508
2013-07-11 03:15:00,2092E-4,5C000000,-0724,0936,11162,030.6,045.4,0.388,733.2,01.19,0.508
2013-07-11 03:16:00,2301E-4,5C000000,-0724,0936,11128,030.6,045.4,0.388,733.2,01.19,0.508
2013-07-11 03:17:00,2059E-4,5C000000,-0724,0937,11188,030.6,045.4,0.388,733.2,01.19,0.508
2013-07-11 03:18:00,1629E-4,5C000000,-0724,0936,11165,030.6,045.4,0.388,733.2,01.19,0.508
2013-07-11 03:19:00,2647E-4,5C000000,-0724,0936,10961,030.6,045.4,0.388,733.2,01.19,0.508
2013-07-11 03:20:00,3369E-4,5C000000,-0724,0936,11267,030.6,045.4,0.388,733.2,01.19,0.508
2013-07-11 03:21:00,1625E-4,5C000000,-0724,0935,11054,030.6,045.4,0.388,733.2,01.19,0.508
2013-07-11 03:22:00,2866E-4,5C000000,-0724,0936,11192,030.6,045.4,0.388,733.2,01.19,0.508
2013-07-11 03:23:00,2958E-4,5C000000,-0724,0936,11187,030.6,045.4,0.388,733.2,01.19,0.508
2013-07-11 03:24:00,1892E-4,5C000000,-0724,0937,11107,030.6,045.4,0.388,733.1,01.19,0.508
2013-07-11 03:25:00,2795E-4,5C000000,-0724,0937,11183,030.6,045.4,0.388,733.1,01.19,0.508
2013-07-11 03:26:00,1695E-4,5C000000,-0724,0937,11215,030.6,045.4,0.388,733.1,01.19,0.508
2013-07-11 03:27:00,2345E-4,5C000000,-0724,0937,11222,030.6,045.4,0.388,733.2,01.19,0.508
2013-07-11 03:28:00,2532E-4,5C000000,-0724,0936,11140,030.6,045.4,0.388,733.1,01.19,0.508
2013-07-11 03:29:00,2418E-4,5C000000,-0724,0937,11179,030.6,045.5,0.388,733.1,01.19,0.508
2013-07-11 03:30:00,2355E-4,5C000000,-0724,0936,11273,030.6,045.4,0.388,733.1,01.19,0.508
2013-07-11 03:31:00,2137E-4,5C000000,-0724,0937,11303,030.6,045.4,0.388,733.1,01.19,0.508
2013-07-11 03:32:00,1999E-4,5C000000,-0724,0937,11179,030.6,045.4,0.388,733.1,01.19,0.508
2013-07-11 03:33:00,2441E-4,5C000000,-0724,0936,11156,030.6,045.4,0.388,733.1,01.19,0.508
2013-07-11 03:34:00,1873E-4,5C000000,-0724,0937,11242,030.6,045.4,0.388,733.1,01.19,0.508
2013-07-11 03:35:00,1777E-4,5C000000,-0724,0937,11081,030.6,045.4,0.388,733.1,01.19,0.508
2013-07-11 03:36:00,2740E-4,5C000000,-0724,0935,11216,030.6,045.4,0.388,733.1,01.19,0.508
2013-07-11 03:37:00,1932E-4,5C000000,-0724,0937,11236,030.6,045.4,0.388,733.0,01.19,0.508
2013-07-11 03:38:00,1703E-4,5C000000,-0724,0936,11099,030.6,045.4,0.388,733.0,01.19,0.508
2013-07-11 03:39:00,1882E-4,5C000000,-0724,0936,11059,030.6,045.4,0.388,733.0,01.19,0.508
2013-07-11 03:40:00,2155E-4,5C000000,-0724,0936,11035,030.6,045.4,0.388,733.0,01.19,0.508
2013-07-11 03:41:00,2433E-4,5C000000,-0724,0937,11079,030.6,045.4,0.388,733.0,01.19,0.508
2013-07-11 03:42:00,2409E-4,5C000000,-0724,0937,11250,030.6,045.4,0.388,733.0,01.19,0.508
2013-07-11 03:43:00,1899E-4,5C000000,-0724,0937,11206,030.6,045.4,0.388,733.0,01.19,0.508
2013-07-11 03:44:00,2766E-4,5C000000,-0724,0937,11228,030.6,045.4,0.388,733.1,01.19,0.508
2013-07-11 03:45:00,2261E-4,5C000000,-0724,0937,11109,030.6,045.4,0.388,733.1,01.19,0.508
2013-07-11 03:46:00,1467E-4,5C000000,-0724,0936,11207,030.6,045.4,0.388,733.0,01.19,0.508
2013-07-11 03:47:00,2898E-4,5C000000,-0724,0936,11263,030.6,045.4,0.388,733.0,01.19,0.508
2013-07-11 03:48:00,1825E-4,5C000000,-0724,0937,11195,030.6,045.4,0.388,733.0,01.19,0.508
2013-07-11 03:49:00,1883E-4,5C000000,-0724,0936,11192,030.6,045.4,0.388,733.0,01.19,0.508
2013-07-11 03:50:00,2447E-4,5C000000,-0724,0936,11109,030.6,045.4,0.388,733.0,01.19,0.508
2013-07-11 03:51:00,2732E-4,5C000000,-0724,0936,11087,030.6,045.4,0.388,732.9,01.19,0.508
2013-07-11 03:52:00,2078E-4,5C000000,-0724,0936,11185,030.6,045.4,0.388,732.9,01.19,0.508
2013-07-11 03:53:00,2085E-4,5C000000,-0724,0937,11213,030.6,045.4,0.388,732.9,01.19,0.508
2013-07-11 03:54:00,1428E-4,5C000000,-0724,0937,11097,030.6,045.4,0.388,732.9,01.19,0.508
2013-07-11 03:55:00,1885E-4,5C000000,-0724,0937,11123,030.6,045.4,0.388,732.9,01.19,0.508
2013-07-11 03:56:00,2429E-4,5C000000,-0724,0936,11068,030.6,045.4,0.388,732.9,01.19,0.508
2013-07-11 03:57:00,2154E-4,5C000000,-0724,0936,11015,030.6,045.4,0.388,732.9,01.19,0.508
2013-07-11 03:58:00,3310E-4,5C000000,-0724,0936,11285,030.6,045.4,0.388,732.8,01.19,0.508
2013-07-11 03:59:00,2106E-4,5C000000,-0724,0937,11229,030.6,045.4,0.388,732.9,01.19,0.508
2013-07-11 04:00:00,1926E-4,5C000000,-0724,0937,11231,030.6,045.4,0.388,732.9,01.19,0.508
2013-07-11 04:01:00,1877E-4,5C000000,-0724,0936,10908,030.6,045.5,0.388,732.8,01.19,0.508
2013-07-11 04:02:00,2497E-4,5C000000,-0724,0937,11263,030.6,045.4,0.388,732.8,01.19,0.508
2013-07-11 04:03:00,2510E-4,5C000000,-0724,0936,11225,030.6,045.4,0.388,732.8,01.19,0.508
2013-07-11 04:04:00,1791E-4,5C000000,-0724,0936,11089,030.6,045.4,0.388,732.8,01.19,0.508
2013-07-11 04:05:00,2799E-4,5C000000,-0724,0937,11190,030.6,045.4,0.388,732.8,01.19,0.508
2013-07-11 04:06:00,2205E-4,5C000000,-0724,0936,11072,030.6,045.4,0.388,732.9,01.19,0.508
2013-07-11 04:07:00,2823E-4,5C000000,-0724,0936,11205,030.6,045.4,0.388,732.8,01.19,0.508
2013-07-11 04:08:00,9566E-5,5C000000,-0724,0936,11281,030.6,045.4,0.388,732.9,01.19,0.508
2013-07-11 04:09:00,2476E-4,5C000000,-0724,0937,10978,030.6,045.4,0.388,732.9,01.19,0.508
2013-07-11 04:10:00,2400E-4,5C000000,-0724,0936,11153,030.6,045.4,0.388,732.9,01.19,0.508
2013-07-11 04:11:00,2027E-4,5C000000,-0724,0936,11088,030.6,045.4,0.388,732.9,01.19,0.508
2013-07-11 04:12:00,2954E-4,5C000000,-0724,0937,11195,030.6,045.4,0.388,732.9,01.19,0.508
2013-07-11 04:13:00,1748E-4,5C000000,-0724,0936,11170,030.6,045.4,0.388,732.9,01.19,0.508
2013-07-11 04:14:00,2588E-4,5C000000,-0724,0936,11206,030.6,045.4,0.388,732.7,01.19,0.508
2013-07-11 04:15:00,2324E-4,5C000000,-0724,0936,11214,030.6,045.4,0.388,732.8,01.19,0.508
2013-07-11 04:16:00,2146E-4,5C000000,-0724,0936,11157,030.6,045.4,0.388,732.8,01.19,0.508
2013-07-11 04:17:00,1571E-4,5C000000,-0724,0935,11141,030.6,045.4,0.387,732.8,01.19,0.508
2013-07-11 04:18:00,3016E-4,5C000000,-0724,0936,11077,030.6,045.4,0.387,732.8,01.19,0.508
2013-07-11 04:19:00,2010E-4,5C000000,-0724,0936,11167,030.6,045.4,0.388,732.8,01.19,0.508
2013-07-11 04:20:00,2335E-4,5C000000,-0724,0936,11269,030.6,045.4,0.388,732.8,01.19,0.508